Bismarck, ND

2:43 AM CST on February 25, 2018 (GMT -0600)
Bismarck Municipal

Weather History for KBIS - May, 2014

Change the Weather History Date:

Saturday, May 24, 2014

  Actual Average Record
Temperature  
Mean Temperature 71 °F 58 °F  
Max Temperature 84 °F 71 °F 96 °F (1926)
Min Temperature 57 °F 46 °F 24 °F (2002)
Degree Days  
Heating Degree Days 0 8  
Month to date heating degree days 329 264  
Since 1 July heating degree days 9055 8419  
Cooling Degree Days 6 1  
Month to date cooling degree days 12 6  
Year to date cooling degree days 12 7  
Growing Degree Days 20 (Base 50)    
Moisture  
Dew Point 58 °F    
Average Humidity 68    
Maximum Humidity 93    
Minimum Humidity 43    
Precipitation  
Precipitation T in 0.09 in 1.94 in (1978)
Month to date precipitation 0.21 1.78  
Year to date precipitation 3.55 4.85  
Snow  
Snow 0.00 in 0.00 in T in (2010)
Month to date snowfall T 0.4  
Since 1 July snowfall 40.5 51.2  
Snow Depth 0.00 in    
Sea Level Pressure  
Sea Level Pressure 29.89 in    
Wind  
Wind Speed 12 mph (SSE)    
Max Wind Speed 24 mph    
Max Gust Speed 30 mph    
Visibility 10 miles    
Events Rain    
T = Trace of Precipitation, MM = Missing Value Source: NWS Daily Summary

Daily Weather History Graph

Daily Weather History Graph

Search for Another Location

Airport or City:

Trip Planner

Search our weather history database for the weather conditions in past years. The results will help you decide how hot, cold, wet, or windy it might be!

Date:

Astronomy

May. 24, 2014 Rise Set
Actual Time 5:58 AM CDT 9:21 PM CDT
Civil Twilight 5:21 AM CDT 9:58 PM CDT
Nautical Twilight 4:32 AM CDT 10:48 PM CDT
Astronomical Twilight 3:30 AM CDT 11:51 PM CDT
Moon 3:45 AM CDT (5/24) 5:06 PM CDT (5/24)
Length of Visible Light 16h 37m
Length of Day
15h 22m
Waning Crescent, 18% of the Moon is Illuminated
May 24
Waning Crescent
May 28
New
Jun 5
First Quarter
Jun 12
Full
Jun 19
Last Quarter

Hourly Weather History & Observations

Time (CDT) Temp. Heat Index Dew Point Humidity Pressure Visibility Wind Dir Wind Speed Gust Speed Precip Events Conditions
12:52 AM 71.1 °F - 59.0 °F 66% 29.93 in 10.0 mi Calm Calm - N/A   Clear
1:52 AM 64.9 °F - 59.0 °F 81% 29.94 in 10.0 mi NE 10.4 mph - N/A   Clear
2:52 AM 66.0 °F - 59.0 °F 78% 29.94 in 10.0 mi East 11.5 mph - N/A   Clear
3:52 AM 62.1 °F - 57.9 °F 86% 29.94 in 10.0 mi SSE 10.4 mph - N/A   Clear
4:52 AM 59.0 °F - 55.9 °F 90% 29.93 in 10.0 mi ESE 6.9 mph - N/A   Clear
5:52 AM 60.1 °F - 55.9 °F 86% 29.94 in 10.0 mi SE 8.1 mph - N/A   Clear
6:52 AM 57.0 °F - 55.0 °F 93% 29.94 in 10.0 mi SE 9.2 mph - N/A   Clear
7:52 AM 64.9 °F - 57.9 °F 78% 29.93 in 10.0 mi SE 6.9 mph - N/A   Clear
8:52 AM 69.1 °F - 57.9 °F 68% 29.92 in 10.0 mi SSE 12.7 mph - N/A   Clear
9:52 AM 75.0 °F - 57.9 °F 55% 29.92 in 10.0 mi SSW 11.5 mph - N/A   Clear
10:52 AM 77.0 °F - 59.0 °F 54% 29.91 in 10.0 mi South 11.5 mph - N/A   Clear
11:52 AM 80.1 °F 80.9 °F 60.1 °F 50% 29.91 in 10.0 mi SSW 15.0 mph 23.0 mph N/A   Clear
12:52 PM 80.1 °F 80.7 °F 59.0 °F 48% 29.91 in 10.0 mi South 12.7 mph - N/A   Clear
1:52 PM 82.0 °F 81.7 °F 57.0 °F 42% 29.90 in 10.0 mi South 20.7 mph 28.8 mph N/A   Clear
2:52 PM 80.1 °F 80.6 °F 57.9 °F 47% 29.88 in 10.0 mi South 17.3 mph 25.3 mph N/A   Clear
3:52 PM 80.1 °F 80.6 °F 57.9 °F 47% 29.88 in 10.0 mi South 19.6 mph 26.5 mph N/A   Clear
4:52 PM 78.1 °F - 57.9 °F 50% 29.86 in 10.0 mi South 11.5 mph - N/A   Clear
5:52 PM 78.8 °F - 57.2 °F 47% 29.86 in 10.0 mi South 10.4 mph - N/A   Clear
6:52 PM 75.0 °F - 57.9 °F 55% 29.84 in 10.0 mi SSE 13.8 mph - N/A   Clear
7:52 PM 73.9 °F - 60.1 °F 62% 29.82 in 10.0 mi South 16.1 mph - 0.00 in Rain Light Rain
8:52 PM 72.0 °F - 61.0 °F 68% 29.80 in 10.0 mi South 16.1 mph - 0.00 in   Clear
9:52 PM 72.0 °F - 61.0 °F 68% 29.82 in 10.0 mi South 6.9 mph - 0.00 in   Clear
10:52 PM 70.0 °F - 60.1 °F 71% 29.84 in 10.0 mi SSE 3.5 mph - N/A   Clear
11:52 PM 66.0 °F - 59.0 °F 78% 29.83 in 10.0 mi SE 4.6 mph - N/A   Clear